GW4420 Weather Reports


time (UTC)temp
C
wind
direction
speed
KPH
gust
KPH
rain 1hr
cm
rain 24hr
cm
rain mn
cm
humidity
%
barometer
mb
20260903030655 30 117 3.2 4.8 0.00 2.49 2.49 89 999.8
20260903030151 29 327 4.8 6.4 0.00 2.49 2.49 90 999.9
20260903025646 29 268 9.7 17.7 0.00 2.49 2.49 91 999.8
20260903025142 29 48 4.8 9.7 0.00 2.49 2.49 92 999.9
20260903024637 28 146 3.2 4.8 0.00 2.49 2.49 93 1000.0
20260903024136 28 69 1.6 3.2 0.00 2.49 2.49 93 1000.1
20260903023632 28 219 9.7 11.3 0.00 2.49 2.49 93 1000.2
20260903023131 27 288 1.6 4.8 0.13 2.49 2.49 95 1000.1
20260903022626 27 288 1.6 4.8 0.13 2.49 2.49 95 1000.1
20260903022126 27 358 1.6 4.8 0.00 2.46 2.46 95 1000.2
20260903021626 27 358 1.6 4.8 0.00 2.46 2.46 95 1000.1
20260903021120 27 358 1.6 4.8 0.00 2.46 2.46 95 1000.3
20260903020616 27 97 0.0 0.0 0.97 2.46 2.46 95 1000.4
20260903020115 27 97 0.0 1.6 0.97 2.46 2.46 95 1000.3
20260903015611 26 86 0.0 0.0 6.35 2.31 2.31 94 1000.3
20260903015107 26 86 0.0 0.0 6.35 2.31 2.31 94 1000.4
20260903014606 27 90 0.0 0.0 0.00 1.24 1.24 94 1000.6
20260903014107 27 90 0.0 0.0 0.00 1.24 1.24 94 1000.6
20260903013607 27 90 0.0 0.0 0.00 1.24 1.24 94 1000.5
20260903013101 27 90 0.0 0.0 0.00 1.24 1.24 94 1000.7
20260903012600 27 90 0.0 0.0 0.66 1.24 1.24 94 1000.9
20260903012059 27 90 0.0 0.0 0.79 1.24 1.24 94 1000.9
20260903011554 27 99 0.0 0.0 0.13 1.14 1.14 94 1001.0
20260903011054 27 86 0.0 0.0 0.48 1.12 1.12 94 1001.0
20260903010549 27 95 0.0 0.0 0.61 1.09 1.09 94 1000.9
20260903010047 26 106 0.0 0.0 0.30 1.04 1.04 93 1000.9
20260903005543 26 85 0.0 0.0 0.00 0.99 0.99 93 1000.6
20260903005038 26 85 0.0 0.0 1.19 0.99 0.99 93 1001.0
20260903004538 26 106 1.6 1.6 1.19 0.99 0.99 93 1000.9
20260903004034 27 289 6.4 9.7 0.00 0.79 0.79 92 1001.0
20260903003529 27 289 6.4 9.7 0.00 0.79 0.79 92 1000.8
20260903003025 27 289 6.4 9.7 1.07 0.79 0.79 92 1001.2
20260903002525 27 289 6.4 9.7 1.07 0.79 0.79 92 1001.2
20260903002019 28 137 1.6 3.2 0.13 0.61 0.61 91 1001.1
20260903001514 28 137 1.6 3.2 0.13 0.61 0.61 91 1001.1
20260903001013 28 96 0.0 1.6 0.18 0.58 0.58 91 1000.9
20260903000509 28 33 1.6 1.6 0.00 0.56 0.56 91 1001.0
20260903000008 29 226 1.6 1.6 0.18 0.56 0.56 91 1000.8
20260902235501 30 18 0.0 1.6 0.00 0.53 0.53 91 1000.8
20260902234956 28 94 0.0 1.6 0.00 0.53 0.53 93 1000.9
20260902234451 28 333 0.0 0.0 0.00 0.53 0.53 93 1001.1
20260902233950 28 96 0.0 0.0 0.00 0.53 0.53 93 1001.3
20260902233449 28 115 1.6 3.2 0.00 0.53 0.53 93 1001.2
20260902232944 28 76 1.6 1.6 0.00 0.53 0.53 93 1001.3
20260902232438 28 85 0.0 1.6 0.00 0.53 0.53 94 1001.2
20260902231938 28 100 0.0 0.0 0.00 0.53 0.53 94 1001.2
20260902231433 27 97 0.0 1.6 0.00 0.53 0.53 95 1001.2
20260902230928 27 99 0.0 0.0 0.00 0.53 0.53 95 1001.2
20260902230427 27 99 0.0 0.0 0.00 0.53 0.53 95 1001.2
20260902225921 27 99 0.0 0.0 0.00 0.53 0.53 95 1001.3
20260902225411 27 99 0.0 0.0 0.00 0.53 0.53 95 1001.4
20260902224910 27 103 0.0 0.0 0.00 0.53 0.53 95 1001.4
20260902224409 27 100 0.0 0.0 0.00 0.53 0.53 95 1001.3
20260902223906 27 86 0.0 1.6 0.00 0.53 0.53 95 1001.2
20260902223401 27 72 0.0 0.0 0.00 0.53 0.53 95 1001.3
20260902222855 27 90 0.0 0.0 0.00 0.53 0.53 96 1001.1
20260902222353 27 73 0.0 0.0 0.00 0.53 0.53 96 1001.4
20260902221848 26 84 0.0 1.6 0.00 0.53 0.53 96 1001.4
20260902221347 26 116 0.0 0.0 0.30 0.53 0.53 96 1001.3
20260902220843 26 104 0.0 0.0 0.30 0.53 0.53 95 1001.3
20260902220342 26 95 0.0 0.0 0.00 0.48 0.48 95 1001.4
20260902215838 26 88 0.0 0.0 0.00 0.48 0.48 95 1001.5
20260902215333 26 91 0.0 0.0 0.00 0.48 0.48 95 1001.3
20260902214829 26 91 0.0 0.0 0.00 0.48 0.48 95 1001.6
20260902214327 26 120 0.0 0.0 0.00 0.48 0.48 95 1001.7
20260902213823 26 99 0.0 0.0 0.00 0.48 0.48 95 1001.6
20260902213319 26 105 0.0 0.0 0.00 0.48 0.48 95 1001.3
20260902212817 26 97 0.0 0.0 0.00 0.48 0.48 95 1001.5
20260902212314 26 98 0.0 0.0 0.00 0.48 0.48 95 1001.5
20260902211810 26 97 0.0 0.0 0.00 0.48 0.48 95 1001.4
20260902211306 26 106 0.0 0.0 0.13 0.48 0.48 95 1001.3
20260902210805 26 96 0.0 0.0 0.13 0.48 0.48 95 1001.4
20260902210300 26 101 0.0 0.0 0.00 0.46 0.46 94 1001.5
20260902205758 26 101 0.0 0.0 0.00 0.46 0.46 94 1001.6
20260902205253 26 101 0.0 0.0 0.89 0.46 0.46 94 1001.6
20260902204749 26 121 0.0 0.0 1.37 0.43 0.43 94 1001.7
20260902204244 26 98 0.0 1.6 0.61 0.28 0.28 94 1001.6
20260902203744 26 98 0.0 0.0 0.30 0.20 0.20 94 1001.5
20260902203244 26 100 0.0 0.0 0.30 0.18 0.18 94 1001.7
20260902202739 26 102 0.0 0.0 0.13 0.15 0.15 94 1001.8
20260902202236 26 27 1.6 1.6 0.00 0.13 0.13 94 1001.7
20260902201732 26 104 0.0 1.6 0.30 0.13 0.13 94 1001.7
20260902201231 26 106 0.0 0.0 0.30 0.10 0.10 94 1001.8
20260902200726 26 145 1.6 4.8 0.18 0.08 0.08 94 1001.6
20260902200222 26 171 1.6 4.8 0.00 0.05 0.05 94 1001.6
20260902195718 26 289 1.6 3.2 0.00 0.05 0.05 94 1001.8
20260902195217 26 210 1.6 4.8 0.00 0.05 0.05 94 1002.0
20260902194716 26 33 3.2 4.8 0.00 0.05 0.05 94 1001.9
20260902194211 26 236 0.0 1.6 0.00 0.05 0.05 94 1001.9
20260902193707 26 119 0.0 0.0 0.00 0.05 0.05 94 1002.0
20260902193202 26 97 0.0 1.6 0.00 0.05 0.05 94 1002.2
20260902192700 26 99 0.0 0.0 0.00 0.05 0.05 93 1002.1
20260902192154 26 100 0.0 0.0 0.00 0.05 0.05 93 1002.1
20260902191648 26 98 0.0 0.0 0.00 0.05 0.05 93 1002.1
20260902191143 26 103 0.0 1.6 0.00 0.05 0.05 93 1002.2
20260902190638 26 113 0.0 0.0 0.00 0.05 0.05 93 1002.2
20260902190133 26 99 0.0 0.0 0.00 0.05 0.05 93 1002.4
20260902185624 26 98 0.0 0.0 0.00 0.05 0.05 93 1002.3
20260902185120 26 96 0.0 0.0 0.00 0.05 0.05 93 1002.3
20260902184615 26 92 0.0 0.0 0.00 0.05 0.05 93 1002.3
20260902184110 26 87 0.0 1.6 0.00 0.05 0.05 93 1002.3
20260902183606 26 98 0.0 3.2 0.00 0.05 0.05 93 1002.2
20260902183102 26 295 4.8 9.7 0.00 0.05 0.05 93 1002.3
20260902182557 26 110 0.0 3.2 0.13 0.05 0.05 93 1002.3
20260902182055 26 103 0.0 3.2 0.00 0.03 0.03 93 1002.6
20260902181550 26 15 1.6 4.8 0.00 0.03 0.03 94 1002.5
20260902181049 26 334 3.2 9.7 0.00 0.03 0.03 94 1002.7
20260902180544 26 92 3.2 6.4 0.00 0.03 0.03 94 1002.8
20260902180040 26 104 0.0 1.6 0.00 0.03 0.03 94 1002.8
20260902175539 26 141 1.6 3.2 0.00 0.03 0.03 94 1003.0
20260902175036 26 12 1.6 3.2 0.00 0.03 0.03 94 1003.0
20260902174532 26 115 0.0 3.2 0.00 0.03 0.03 94 1003.1
20260902174027 26 127 0.0 1.6 0.00 0.03 0.03 94 1003.2
20260902173527 26 98 0.0 0.0 0.00 0.03 0.03 94 1003.4
20260902173027 26 101 0.0 0.0 0.00 0.03 0.03 94 1003.4
20260902172526 26 103 0.0 1.6 0.00 0.03 0.03 94 1003.4
20260902172022 26 98 0.0 1.6 0.00 0.03 0.03 94 1003.7
20260902171517 26 95 0.0 3.2 0.00 0.03 0.03 94 1003.9
20260902171013 26 99 0.0 0.0 0.00 0.03 0.03 94 1004.0
20260902170508 26 140 0.0 0.0 0.00 0.03 0.03 94 1003.9
20260902170004 26 338 3.2 3.2 0.00 0.03 0.03 94 1003.9
20260902165458 26 305 4.8 6.4 0.00 0.03 0.03 94 1003.9
20260902164958 26 82 0.0 1.6 0.00 0.03 0.03 94 1004.0
20260902164453 26 104 0.0 0.0 0.00 0.03 0.03 94 1004.2
20260902163952 26 104 0.0 1.6 0.00 0.03 0.03 94 1004.1
20260902163447 26 50 0.0 1.6 0.18 0.03 0.03 94 1004.1
20260902162945 26 89 0.0 1.6 0.18 0.03 0.03 94 1004.1
20260902162441 25 97 0.0 0.0 0.00 0.00 0.00 94 1004.2
20260902161941 25 81 0.0 0.0 0.00 0.00 0.00 94 1004.2
20260902161436 25 107 0.0 1.6 0.00 0.00 0.00 93 1004.3
20260902160932 25 227 0.0 1.6 0.00 0.00 0.00 93 1004.4
20260902160427 25 313 1.6 1.6 0.00 0.00 0.00 93 1004.3
20260902155925 25 78 0.0 1.6 0.00 0.00 0.00 93 1004.5
20260902155420 25 285 3.2 4.8 0.00 0.00 0.00 93 1004.5
20260902154914 25 284 3.2 4.8 0.00 0.00 0.00 93 1004.6
20260902154410 25 281 3.2 6.4 0.00 0.00 0.00 93 1004.6
20260902153909 25 109 0.0 1.6 0.00 0.00 0.00 93 1004.9
20260902153408 25 46 1.6 6.4 0.00 0.00 0.00 93 1005.1
20260902152904 25 19 1.6 3.2 0.00 0.00 0.00 93 1005.1
20260902152359 25 92 0.0 3.2 0.00 0.00 0.00 93 1005.1
20260902151850 25 308 3.2 4.8 0.00 0.00 0.00 93 1005.2
20260902151345 25 307 3.2 6.4 0.00 0.00 0.00 92 1005.3
20260902150844 25 263 3.2 6.4 0.00 0.00 0.00 92 1005.3
20260902150341 25 46 3.2 11.3 0.00 0.00 0.00 92 1005.6
20260902145840 25 311 3.2 4.8 0.00 0.30 0.30 92 1005.4
20260902145336 25 288 6.4 6.4 0.00 0.30 0.30 92 1005.5
20260902144831 25 298 6.4 9.7 0.00 0.30 0.30 92 1005.7
20260902144327 25 295 4.8 6.4 0.00 0.30 0.30 92 1006.0
20260902143822 25 214 3.2 9.7 0.00 0.30 0.30 92 1006.0
20260902143322 25 313 3.2 9.7 0.00 0.30 0.30 92 1005.8
20260902142818 25 349 6.4 14.5 0.00 0.30 0.30 92 1006.2
20260902142313 25 29 3.2 6.4 0.00 0.30 0.30 92 1006.3
20260902141808 25 134 6.4 11.3 0.00 0.30 0.30 92 1006.2
20260902141304 25 278 3.2 6.4 0.00 0.30 0.30 92 1006.2
20260902140758 25 315 3.2 9.7 0.00 0.30 0.30 92 1006.4
20260902140254 25 330 1.6 4.8 0.00 0.30 0.30 92 1006.3
20260902135752 25 296 1.6 4.8 0.00 0.30 0.30 92 1006.3
20260902135249 25 253 4.8 9.7 0.00 0.30 0.30 92 1006.3
20260902134748 25 293 4.8 6.4 0.00 0.30 0.30 92 1006.4
20260902134244 25 315 9.7 12.9 0.00 0.30 0.30 92 1006.4
20260902133739 25 5 1.6 9.7 0.00 0.30 0.30 92 1006.5
20260902133238 25 329 6.4 17.7 0.00 0.30 0.30 92 1006.6
20260902132733 25 318 6.4 14.5 0.00 0.30 0.30 93 1006.6
20260902132229 25 106 1.6 6.4 0.00 0.30 0.30 93 1006.5
20260902131724 25 305 4.8 6.4 0.00 0.30 0.30 93 1006.6
20260902131220 25 5 1.6 6.4 0.00 0.30 0.30 93 1006.8
20260902130715 25 321 3.2 6.4 0.00 0.30 0.30 93 1006.7
20260902130211 25 66 3.2 9.7 0.00 0.30 0.30 92 1006.7
20260902125711 25 341 8.0 11.3 1.80 0.30 0.30 93 1006.8
20260902125207 25 9 4.8 11.3 1.80 0.30 0.30 93 1006.8
20260902124703 -17 0.0 0.0 0.00 0.00 0.00 1006.9
20260902124203 -17 0.0 0.0 0.00 0.00 0.00 1006.9
20260902123659 -17 0.0 0.0 0.00 0.00 0.00 1006.9
20260902123155 -17 0.0 0.0 0.00 0.00 0.00 1006.9
20260902122654 -17 0.0 0.0 0.00 0.00 0.00 1007.0
20260902122150 -17 0.0 0.0 0.00 0.00 0.00 1007.1
20260902121644 -17 0.0 0.0 0.00 0.00 0.00 1006.9
20260902121138 -17 0.0 0.0 0.00 0.00 0.00 1007.0
20260902120635 -17 0.0 0.0 0.00 0.00 0.00 1006.9
20260902120132 -17 0.0 0.0 0.00 0.00 0.00 1006.8
20260902115626 -17 0.0 0.0 0.00 0.00 0.00 1007.0
20260902115122 -17 0.0 0.0 0.00 0.00 0.00 1006.8
20260902114618 -17 0.0 0.0 0.00 0.00 0.00 1006.8
20260902114118 -17 0.0 0.0 0.00 0.00 0.00 1006.7
20260902113613 -17 0.0 0.0 0.00 0.00 0.00 1006.7
20260902113108 -17 0.0 0.0 0.00 0.00 0.00 1006.7
20260902112603 26 318 11.3 14.5 0.00 0.00 0.00 83 1006.9
20260902112100 26 318 11.3 14.5 0.00 0.00 0.00 83 1006.8
20260902111556 26 318 11.3 14.5 0.00 0.00 0.00 83 1006.7
20260902111051 26 318 11.3 14.5 0.00 0.00 0.00 83 1006.7
20260902110547 26 318 11.3 14.5 0.00 0.00 0.00 83 1006.7
20260902110042 26 318 11.3 14.5 0.00 0.00 0.00 83 1006.7
20260902105537 26 318 11.3 14.5 0.00 0.00 0.00 83 1006.9
20260902105037 26 318 11.3 14.5 0.00 0.00 0.00 83 1006.8
20260902104533 26 318 11.3 14.5 0.00 0.00 0.00 83 1006.6
20260902104033 26 318 11.3 14.5 0.00 0.00 0.00 83 1006.7
20260902103528 26 318 11.3 14.5 0.00 0.00 0.00 83 1006.7
20260902103024 26 319 11.3 17.7 0.00 0.00 0.00 83 1006.6
20260902102520 27 16 6.4 11.3 0.00 0.00 0.00 82 1006.9
20260902102017 27 43 4.8 9.7 0.00 0.00 0.00 81 1007.0
20260902101512 27 290 9.7 22.5 0.00 0.00 0.00 79 1007.0
20260902101010 27 346 8.0 12.9 0.00 0.00 0.00 78 1006.7
20260902100505 27 300 11.3 16.1 0.00 0.00 0.00 78 1007.0
20260902095959 27 259 9.7 17.7 0.00 0.00 0.00 78 1006.8
20260902095454 27 24 4.8 17.7 0.00 0.00 0.00 78 1006.9
20260902094953 27 349 3.2 11.3 0.00 0.00 0.00 79 1006.9
20260902094450 27 254 6.4 16.1 0.00 0.00 0.00 79 1006.7
20260902093949 27 288 12.9 14.5 0.00 0.00 0.00 79 1006.9
20260902093444 27 102 9.7 14.5 0.00 0.00 0.00 79 1006.7
20260902092943 27 34 8.0 14.5 0.00 0.00 0.00 79 1006.8
20260902092440 27 352 14.5 22.5 0.00 0.00 0.00 79 1006.8
20260902091939 27 14 12.9 16.1 0.00 0.00 0.00 79 1006.8
20260902091435 27 8 11.3 25.7 0.00 0.00 0.00 79 1006.7
20260902090931 27 349 6.4 12.9 0.00 0.00 0.00 78 1006.8
20260902090431 28 316 12.9 20.9 0.00 0.00 0.00 78 1006.9
20260902085930 28 85 6.4 17.7 0.00 0.00 0.00 77 1006.7
20260902085425 28 333 9.7 16.1 0.00 0.00 0.00 76 1007.0
20260902084920 28 356 4.8 14.5 0.00 0.00 0.00 75 1006.8
20260902084417 28 36 6.4 16.1 0.00 0.00 0.00 73 1006.9
20260902083913 29 50 8.0 14.5 0.00 0.00 0.00 71 1006.8
20260902083412 29 42 4.8 9.7 0.00 0.00 0.00 70 1006.9
20260902082907 29 344 8.0 12.9 0.00 0.00 0.00 70 1006.9
20260902082403 29 45 3.2 16.1 0.00 0.00 0.00 70 1007.0
20260902081900 29 50 9.7 12.9 0.00 0.00 0.00 70 1006.7
20260902081355 29 12 9.7 20.9 0.00 0.00 0.00 70 1006.6
20260902080850 29 67 1.6 6.4 0.00 0.00 0.00 72 1006.8
20260902080347 29 343 3.2 12.9 0.00 0.00 0.00 73 1006.7
20260902075845 29 60 4.8 14.5 0.00 0.00 0.00 73 1006.5
20260902075337 29 248 4.8 14.5 0.00 0.00 0.00 74 1006.7
20260902074832 30 333 16.1 29.0 0.00 0.00 0.00 72 1006.7
20260902074327 30 201 1.6 14.5 0.00 0.00 0.00 73 1006.6
20260902073822 30 8 3.2 6.4 0.00 0.00 0.00 73 1006.5
20260902073319 30 12 6.4 14.5 0.00 0.00 0.00 72 1006.5
20260902072814 30 312 3.2 17.7 0.00 0.00 0.00 72 1006.7
20260902072310 30 48 3.2 3.2 0.00 0.00 0.00 72 1006.7
20260902071805 30 67 9.7 16.1 0.00 0.00 0.00 70 1007.0
20260902071255 30 358 14.5 17.7 0.00 0.00 0.00 70 1006.6
20260902070751 30 19 4.8 16.1 0.00 0.00 0.00 70 1006.3
20260902070251 30 36 8.0 12.9 0.00 0.00 0.00 72 1006.6
20260902065749 30 349 8.0 16.1 0.00 0.00 0.00 72 1006.6
20260902065244 30 3 6.4 12.9 0.00 0.00 0.00 74 1006.5
20260902064740 30 353 6.4 11.3 0.00 0.00 0.00 75 1006.6
20260902064236 29 356 3.2 6.4 0.00 0.00 0.00 79 1006.7
20260902063732 28 329 11.3 16.1 0.00 0.00 0.00 81 1007.0
20260902063231 29 62 3.2 4.8 0.00 0.00 0.00 80 1006.9
20260902062726 31 359 14.5 20.9 0.00 0.00 0.00 73 1007.0
20260902062221 31 23 3.2 11.3 0.00 0.00 0.00 74 1006.8
20260902061720 31 50 4.8 17.7 0.00 0.00 0.00 73 1006.7
20260902061215 31 10 4.8 14.5 0.00 0.00 0.00 74 1006.8
20260902060712 30 50 3.2 22.5 0.00 0.00 0.00 75 1006.8
20260902060208 30 0 3.2 11.3 0.00 0.00 0.00 75 1006.9
20260902055703 30 92 3.2 9.7 0.00 0.00 0.00 74 1007.0
20260902055159 30 38 4.8 14.5 0.00 0.00 0.00 75 1007.0
20260902054654 30 5 3.2 20.9 0.00 0.00 0.00 77 1007.0
20260902054149 30 284 14.5 25.7 0.00 0.00 0.00 76 1007.4
20260902053644 30 340 3.2 14.5 0.00 0.00 0.00 76 1007.0
20260902053139 30 343 9.7 17.7 0.00 0.00 0.00 74 1007.1
20260902052638 31 78 3.2 6.4 0.00 0.00 0.00 73 1006.8
20260902052134 30 57 8.0 14.5 0.00 0.00 0.00 75 1006.9
20260902051633 30 49 8.0 14.5 0.00 0.00 0.00 76 1007.0
20260902051127 30 311 11.3 17.7 0.00 0.00 0.00 75 1007.0
20260902050621 30 34 8.0 22.5 0.00 0.00 0.00 74 1007.2
20260902050116 30 43 6.4 17.7 0.00 0.00 0.00 75 1007.0
20260902045612 30 12 4.8 17.7 0.00 0.00 0.00 77 1007.4
20260902045108 30 346 3.2 11.3 0.00 0.00 0.00 78 1007.3
20260902044602 30 316 9.7 14.5 0.00 0.00 0.00 77 1007.3
20260902044058 30 21 6.4 9.7 0.00 0.00 0.00 76 1007.3
20260902043548 30 4 12.9 16.1 0.00 0.00 0.00 75 1007.3
20260902043043 30 154 8.0 11.3 0.00 0.00 0.00 74 1007.6
20260902042542 31 12 11.3 20.9 0.00 0.00 0.00 72 1007.6
20260902042038 30 74 9.7 14.5 0.00 0.00 0.00 74 1007.6
20260902041537 31 16 16.1 25.7 0.00 0.00 0.00 73 1007.8
20260902041032 31 9 11.3 12.9 0.00 0.00 0.00 73 1007.6
20260902040527 31 27 4.8 20.9 0.00 0.00 0.00 73 1007.6
20260902040026 30 4 11.3 14.5 0.00 0.00 0.00 74 1007.7
20260902035520 30 30 11.3 30.6 0.00 0.00 0.00 73 1007.8
20260902035016 30 37 9.7 16.1 0.00 0.00 0.00 74 1007.8
20260902034514 30 13 8.0 22.5 0.00 0.00 0.00 77 1007.9
20260902034014 30 322 8.0 12.9 0.00 0.00 0.00 77 1008.0
20260902033514 30 241 6.4 17.7 0.00 0.00 0.00 78 1007.8
20260902033013 30 65 4.8 11.3 0.00 0.00 0.00 79 1008.2
20260902032508 30 334 4.8 22.5 0.00 0.00 0.00 79 1008.4
20260902032003 30 78 3.2 22.5 0.00 0.00 0.00 79 1008.3
20260902031457 30 61 4.8 12.9 0.00 0.00 0.00 78 1008.1
20260902030954 30 277 6.4 11.3 0.00 0.00 0.00 78 1008.3